Time,TemperatureF,DewpointF,PressureIn,WindDirection,WindDirectionDegrees,WindSpeedMPH,WindSpeedGustMPH,Humidity,HourlyPrecipIn,Conditions,Clouds,dailyrainin,SoftwareType,DateUTC
2013-10-15 00:01:00,44.7,44.0,30.27,NW,326,0.0,0.0,98,0.00,,,0.27,weatherlink.com 1.10,2013-10-15 04:01:00,
2013-10-15 00:16:00,43.8,43.0,30.27,NW,326,0.0,0.0,98,0.00,,,0.00,weatherlink.com 1.10,2013-10-15 04:16:00,
2013-10-15 00:31:00,44.1,44.0,30.26,NW,326,0.0,1.0,98,0.00,,,0.00,weatherlink.com 1.10,2013-10-15 04:31:00,
2013-10-15 00:46:00,43.8,43.0,30.26,NW,326,0.0,0.0,98,0.00,,,0.00,weatherlink.com 1.10,2013-10-15 04:46:00,
2013-10-15 01:01:00,43.2,43.0,30.27,NW,326,0.0,0.0,98,0.00,,,0.00,weatherlink.com 1.10,2013-10-15 05:01:00,
2013-10-15 01:16:00,42.3,42.0,30.26,NW,326,0.0,0.0,98,0.00,,,0.00,weatherlink.com 1.10,2013-10-15 05:16:00,
2013-10-15 01:31:00,42.1,42.0,30.26,NW,326,0.0,1.0,98,0.00,,,0.00,weatherlink.com 1.10,2013-10-15 05:31:00,
2013-10-15 01:46:00,42.1,42.0,30.25,NW,326,0.0,0.0,98,0.00,,,0.00,weatherlink.com 1.10,2013-10-15 05:46:00,
2013-10-15 02:01:00,42.3,42.0,30.25,NW,326,0.0,1.0,98,0.00,,,0.00,weatherlink.com 1.10,2013-10-15 06:01:00,
2013-10-15 02:16:00,42.0,42.0,30.25,NW,326,0.0,1.0,98,0.00,,,0.00,weatherlink.com 1.10,2013-10-15 06:16:00,
2013-10-15 02:31:00,41.3,41.0,30.24,NW,326,0.0,0.0,98,0.01,,,0.01,weatherlink.com 1.10,2013-10-15 06:31:00,
2013-10-15 02:46:00,40.7,40.0,30.24,NW,326,0.0,0.0,98,0.01,,,0.01,weatherlink.com 1.10,2013-10-15 06:46:00,
2013-10-15 03:01:00,40.4,40.0,30.24,NW,326,0.0,0.0,98,0.01,,,0.01,weatherlink.com 1.10,2013-10-15 07:01:00,
2013-10-15 03:16:00,40.5,40.0,30.24,NW,326,0.0,0.0,98,0.01,,,0.01,weatherlink.com 1.10,2013-10-15 07:16:00,
2013-10-15 03:31:00,40.4,40.0,30.23,NW,326,0.0,0.0,98,0.00,,,0.01,weatherlink.com 1.10,2013-10-15 07:31:00,
2013-10-15 03:46:00,40.2,40.0,30.23,NW,326,0.0,0.0,98,0.00,,,0.01,weatherlink.com 1.10,2013-10-15 07:46:00,
2013-10-15 04:01:00,40.5,40.0,30.23,NW,326,0.0,0.0,98,0.00,,,0.01,weatherlink.com 1.10,2013-10-15 08:01:00,
2013-10-15 04:16:00,40.3,40.0,30.23,NW,326,0.0,1.0,98,0.00,,,0.01,weatherlink.com 1.10,2013-10-15 08:16:00,
2013-10-15 04:31:00,40.1,40.0,30.23,NW,326,0.0,0.0,98,0.00,,,0.01,weatherlink.com 1.10,2013-10-15 08:31:00,
2013-10-15 04:46:00,39.9,39.0,30.23,NW,326,0.0,0.0,98,0.00,,,0.01,weatherlink.com 1.10,2013-10-15 08:46:00,
2013-10-15 05:01:00,39.6,39.0,30.23,NW,326,0.0,1.0,99,0.00,,,0.01,weatherlink.com 1.10,2013-10-15 09:01:00,
2013-10-15 05:16:00,39.7,40.0,30.23,NW,326,0.0,0.0,99,0.00,,,0.01,weatherlink.com 1.10,2013-10-15 09:16:00,
2013-10-15 05:31:00,39.0,39.0,30.23,NW,325,0.0,1.0,99,0.00,,,0.01,weatherlink.com 1.10,2013-10-15 09:31:00,
2013-10-15 05:46:00,40.3,40.0,30.22,NW,325,0.0,0.0,99,0.00,,,0.01,weatherlink.com 1.10,2013-10-15 09:46:00,
2013-10-15 06:01:00,39.7,40.0,30.23,NW,325,0.0,0.0,99,0.00,,,0.01,weatherlink.com 1.10,2013-10-15 10:01:00,
2013-10-15 06:16:00,39.3,39.0,30.23,NW,325,0.0,1.0,99,0.00,,,0.01,weatherlink.com 1.10,2013-10-15 10:16:00,
2013-10-15 06:31:00,40.3,40.0,30.23,NW,326,0.0,1.0,99,0.00,,,0.01,weatherlink.com 1.10,2013-10-15 10:31:00,
2013-10-15 06:46:00,39.9,40.0,30.23,NW,326,0.0,1.0,99,0.00,,,0.01,weatherlink.com 1.10,2013-10-15 10:46:00,
2013-10-15 07:01:00,39.8,40.0,30.22,NW,326,0.0,0.0,99,0.00,,,0.01,weatherlink.com 1.10,2013-10-15 11:01:00,
2013-10-15 07:16:00,39.5,39.0,30.22,NW,323,0.0,1.0,99,0.00,,,0.01,weatherlink.com 1.10,2013-10-15 11:16:00,
2013-10-15 07:31:00,39.3,39.0,30.22,NW,323,0.0,0.0,99,0.00,,,0.01,weatherlink.com 1.10,2013-10-15 11:31:00,
2013-10-15 07:46:00,40.4,40.0,30.22,NW,323,0.0,1.0,99,0.00,,,0.01,weatherlink.com 1.10,2013-10-15 11:46:00,
2013-10-15 08:01:00,40.5,40.0,30.23,WNW,290,0.0,1.0,99,0.00,,,0.01,weatherlink.com 1.10,2013-10-15 12:01:00,
2013-10-15 08:16:00,41.7,42.0,30.23,WNW,290,0.0,0.0,99,0.00,,,0.01,weatherlink.com 1.10,2013-10-15 12:16:00,
2013-10-15 08:32:00,43.5,43.0,30.23,WNW,284,0.0,2.0,99,0.00,,,0.01,weatherlink.com 1.10,2013-10-15 12:32:00,
2013-10-15 08:47:00,44.7,45.0,30.23,WSW,258,1.0,2.0,99,0.00,,,0.01,weatherlink.com 1.10,2013-10-15 12:47:00,
2013-10-15 09:02:00,46.1,46.0,30.22,WSW,258,0.0,1.0,99,0.00,,,0.01,weatherlink.com 1.10,2013-10-15 13:02:00,
2013-10-15 09:17:00,47.4,47.0,30.22,WSW,243,0.0,2.0,99,0.00,,,0.01,weatherlink.com 1.10,2013-10-15 13:17:00,
2013-10-15 09:32:00,49.3,49.0,30.22,West,272,1.0,2.0,99,0.00,,,0.01,weatherlink.com 1.10,2013-10-15 13:32:00,
2013-10-15 09:47:00,50.7,51.0,30.22,West,262,0.0,2.0,99,0.00,,,0.01,weatherlink.com 1.10,2013-10-15 13:47:00,
2013-10-15 10:02:00,52.1,52.0,30.21,SE,137,0.0,2.0,99,0.00,,,0.01,weatherlink.com 1.10,2013-10-15 14:02:00,
2013-10-15 10:17:00,53.6,53.0,30.21,SSE,160,1.0,3.0,99,0.00,,,0.01,weatherlink.com 1.10,2013-10-15 14:17:00,
2013-10-15 10:32:00,55.1,55.0,30.20,SE,141,2.0,4.0,99,0.00,,,0.01,weatherlink.com 1.10,2013-10-15 14:32:00,
2013-10-15 10:47:00,57.0,57.0,30.19,SE,126,4.0,7.0,98,0.00,,,0.01,weatherlink.com 1.10,2013-10-15 14:47:00,
2013-10-15 11:02:00,59.1,55.0,30.18,SE,132,5.0,7.0,86,0.00,,,0.01,weatherlink.com 1.10,2013-10-15 15:02:00,
2013-10-15 11:17:00,60.5,55.0,30.17,SSW,198,1.0,9.0,81,0.00,,,0.01,weatherlink.com 1.10,2013-10-15 15:17:00,
2013-10-15 11:32:00,61.3,55.0,30.16,SSE,163,2.0,10.0,80,0.00,,,0.01,weatherlink.com 1.10,2013-10-15 15:32:00,
2013-10-15 11:47:00,62.3,56.0,30.16,South,177,4.0,7.0,79,0.00,,,0.01,weatherlink.com 1.10,2013-10-15 15:47:00,
2013-10-15 12:02:00,63.0,56.0,30.16,SSE,153,2.0,7.0,77,0.00,,,0.01,weatherlink.com 1.10,2013-10-15 16:02:00,
2013-10-15 12:17:00,63.3,56.0,30.16,SE,130,4.0,8.0,76,0.00,,,0.01,weatherlink.com 1.10,2013-10-15 16:17:00,
2013-10-15 12:32:00,65.0,57.0,30.15,ESE,122,5.0,6.0,74,0.00,,,0.01,weatherlink.com 1.10,2013-10-15 16:32:00,
2013-10-15 12:47:00,65.0,57.0,30.15,WSW,257,1.0,6.0,76,0.00,,,0.01,weatherlink.com 1.10,2013-10-15 16:47:00,
2013-10-15 13:03:00,64.8,56.0,30.13,SSE,153,2.0,6.0,74,0.00,,,0.01,weatherlink.com 1.10,2013-10-15 17:03:00,
2013-10-15 13:18:00,65.0,56.0,30.12,SE,128,4.0,7.0,73,0.00,,,0.01,weatherlink.com 1.10,2013-10-15 17:18:00,
2013-10-15 13:33:00,64.4,56.0,30.11,SE,138,2.0,6.0,73,0.00,,,0.01,weatherlink.com 1.10,2013-10-15 17:33:00,
2013-10-15 13:48:00,64.5,56.0,30.11,SE,127,4.0,6.0,74,0.00,,,0.01,weatherlink.com 1.10,2013-10-15 17:48:00,
2013-10-15 14:03:00,66.1,56.0,30.10,WSW,249,2.0,6.0,70,0.00,,,0.01,weatherlink.com 1.10,2013-10-15 18:03:00,
2013-10-15 14:18:00,67.1,57.0,30.09,SSE,153,6.0,7.0,69,0.00,,,0.01,weatherlink.com 1.10,2013-10-15 18:18:00,
2013-10-15 14:33:00,67.5,56.0,30.09,WSW,251,1.0,6.0,67,0.00,,,0.01,weatherlink.com 1.10,2013-10-15 18:33:00,
2013-10-15 14:48:00,67.2,55.0,30.09,SW,234,3.0,12.0,66,0.00,,,0.01,weatherlink.com 1.10,2013-10-15 18:48:00,
2013-10-15 15:03:00,67.7,56.0,30.08,WSW,256,2.0,8.0,67,0.00,,,0.01,weatherlink.com 1.10,2013-10-15 19:03:00,
2013-10-15 15:18:00,66.9,56.0,30.08,WSW,253,2.0,10.0,69,0.00,,,0.01,weatherlink.com 1.10,2013-10-15 19:18:00,
2013-10-15 15:33:00,67.1,57.0,30.07,SSW,196,6.0,9.0,71,0.00,,,0.01,weatherlink.com 1.10,2013-10-15 19:33:00,
2013-10-15 15:48:00,67.5,57.0,30.06,SSE,164,2.0,7.0,70,0.00,,,0.01,weatherlink.com 1.10,2013-10-15 19:48:00,
2013-10-15 16:03:00,67.0,57.0,30.05,WSW,251,2.0,9.0,70,0.00,,,0.01,weatherlink.com 1.10,2013-10-15 20:03:00,
2013-10-15 16:18:00,66.1,56.0,30.04,SE,141,2.0,9.0,70,0.00,,,0.01,weatherlink.com 1.10,2013-10-15 20:18:00,
2013-10-15 16:33:00,65.9,56.0,30.04,SW,236,1.0,8.0,71,0.00,,,0.01,weatherlink.com 1.10,2013-10-15 20:33:00,
2013-10-15 16:48:00,65.7,56.0,30.04,WSW,249,0.0,6.0,71,0.00,,,0.01,weatherlink.com 1.10,2013-10-15 20:48:00,
2013-10-15 17:03:00,65.2,56.0,30.05,SW,231,2.0,4.0,73,0.00,,,0.01,weatherlink.com 1.10,2013-10-15 21:03:00,
2013-10-15 17:18:00,64.9,56.0,30.04,WSW,246,1.0,4.0,73,0.00,,,0.01,weatherlink.com 1.10,2013-10-15 21:18:00,
2013-10-15 17:33:00,64.6,56.0,30.04,South,187,0.0,3.0,73,0.00,,,0.01,weatherlink.com 1.10,2013-10-15 21:33:00,
2013-10-15 17:48:00,64.6,56.0,30.04,SW,234,0.0,2.0,73,0.00,,,0.01,weatherlink.com 1.10,2013-10-15 21:48:00,
2013-10-15 18:03:00,63.6,56.0,30.04,WSW,255,0.0,1.0,75,0.00,,,0.01,weatherlink.com 1.10,2013-10-15 22:03:00,
2013-10-15 18:18:00,62.1,55.0,30.03,WSW,254,1.0,1.0,78,0.00,,,0.01,weatherlink.com 1.10,2013-10-15 22:18:00,
2013-10-15 18:33:00,61.1,55.0,30.03,SE,125,0.0,1.0,81,0.00,,,0.01,weatherlink.com 1.10,2013-10-15 22:33:00,
2013-10-15 18:48:00,60.1,55.0,30.03,ESE,123,0.0,1.0,83,0.00,,,0.01,weatherlink.com 1.10,2013-10-15 22:48:00,
2013-10-15 19:03:00,59.2,55.0,30.02,ESE,123,0.0,1.0,86,0.00,,,0.01,weatherlink.com 1.10,2013-10-15 23:03:00,
2013-10-15 19:18:00,59.1,55.0,30.02,ESE,123,0.0,1.0,86,0.00,,,0.01,weatherlink.com 1.10,2013-10-15 23:18:00,
2013-10-15 19:33:00,59.5,55.0,30.02,ESE,115,0.0,2.0,85,0.00,,,0.01,weatherlink.com 1.10,2013-10-15 23:33:00,
2013-10-15 19:48:00,59.1,55.0,30.01,ESE,121,0.0,2.0,85,0.00,,,0.01,weatherlink.com 1.10,2013-10-15 23:48:00,
2013-10-15 20:03:00,57.6,54.0,30.01,ESE,121,0.0,0.0,88,0.00,,,0.01,weatherlink.com 1.10,2013-10-16 00:03:00,
2013-10-15 20:18:00,57.2,54.0,30.01,ESE,121,0.0,0.0,90,0.00,,,0.01,weatherlink.com 1.10,2013-10-16 00:18:00,
2013-10-15 20:33:00,57.8,55.0,30.00,ESE,121,0.0,1.0,90,0.00,,,0.01,weatherlink.com 1.10,2013-10-16 00:33:00,
2013-10-15 20:48:00,58.3,55.0,30.00,SE,141,0.0,1.0,88,0.00,,,0.01,weatherlink.com 1.10,2013-10-16 00:48:00,
2013-10-15 21:03:00,58.1,55.0,29.99,SE,141,0.0,1.0,88,0.00,,,0.01,weatherlink.com 1.10,2013-10-16 01:03:00,
2013-10-15 21:18:00,57.8,55.0,29.99,SE,142,0.0,1.0,89,0.00,,,0.01,weatherlink.com 1.10,2013-10-16 01:18:00,
2013-10-15 21:33:00,58.0,55.0,29.99,SSE,153,1.0,2.0,89,0.00,,,0.01,weatherlink.com 1.10,2013-10-16 01:33:00,
2013-10-15 21:48:00,58.3,55.0,29.99,SSE,155,1.0,2.0,88,0.00,,,0.01,weatherlink.com 1.10,2013-10-16 01:48:00,
2013-10-15 22:03:00,57.5,54.0,29.98,SSE,148,0.0,0.0,89,0.00,,,0.01,weatherlink.com 1.10,2013-10-16 02:03:00,
2013-10-15 22:20:00,56.8,54.0,29.98,SSE,148,0.0,0.0,90,0.00,,,0.01,weatherlink.com 1.10,2013-10-16 02:20:00,
2013-10-15 22:34:00,57.1,54.0,29.97,SSE,162,0.0,2.0,90,0.00,,,0.01,weatherlink.com 1.10,2013-10-16 02:34:00,
2013-10-15 22:49:00,57.2,54.0,29.97,SSE,160,0.0,1.0,90,0.00,,,0.01,weatherlink.com 1.10,2013-10-16 02:49:00,
2013-10-15 23:04:00,57.6,54.0,29.96,SSE,163,0.0,2.0,89,0.00,,,0.01,weatherlink.com 1.10,2013-10-16 03:04:00,
2013-10-15 23:19:00,57.5,54.0,29.96,SSE,161,0.0,2.0,89,0.00,,,0.01,weatherlink.com 1.10,2013-10-16 03:19:00,
2013-10-15 23:34:00,58.1,54.0,29.95,SE,125,0.0,3.0,86,0.00,,,0.01,weatherlink.com 1.10,2013-10-16 03:34:00,
2013-10-15 23:49:00,57.1,53.0,29.95,SE,129,0.0,1.0,87,0.00,,,0.01,weatherlink.com 1.10,2013-10-16 03:49:00,